RH
70 76 78 80 80 78 74 70 68 66 65 68 71 71 71 71 72 74 76 78 79 78 79 83 84 83 79 74 71 67 65 63 61 61 60 60 58 54 48 41 38 37
70 74 79 82 83 82 80 75 70 64 60 62 68 73 74 74 75 77 78 80 81 80 80 82 84 84 81 77 72 68 66 64 62 61 61 62 60 57 51 44 41 39
71 74 79 83 85 85 83 80 75 67 58 55 60 70 76 77 77 79 82 84 85 84 82 82 83 84 83 79 74 70 67 64 63 62 63 64 63 60 54 47 44 43
73 75 79 82 84 85 85 85 81 74 65 57 57 64 73 79 80 80 84 88 89 87 85 84 83 84 84 82 78 73 68 65 63 62 64 66 64 62 58 52 48 48
75 76 79 82 84 85 86 88 86 80 72 62 57 61 70 78 80 80 82 87 92 91 88 86 84 84 84 84 81 76 72 68 65 63 65 66 65 63 61 57 52 53
76 78 80 83 85 87 90 90 88 84 77 69 64 63 70 79 81 81 81 83 90 95 94 89 85 85 85 84 84 80 76 72 68 66 66 67 67 66 65 62 56 57
78 80 82 84 86 89 92 92 91 86 79 76 74 71 76 84 86 87 87 85 87 94 98 94 88 86 86 85 84 82 78 75 71 68 67 68 69 68 68 64 58 57
81 83 84 85 88 91 92 92 90 85 80 80 79 76 81 89 92 93 95 94 93 94 98 99 93 89 88 86 85 83 80 76 72 70 68 68 70 69 69 66 62 60
84 86 86 88 91 94 95 94 88 81 81 84 83 80 84 91 95 97 99 99 99 97 98 100 98 93 90 88 87 85 82 78 74 72 70 69 70 70 71 70 68 65
87 87 87 91 95 97 98 97 90 83 84 87 86 86 87 90 93 96 98 99 99 98 98 100 100 98 94 91 89 87 85 81 76 73 72 71 71 72 74 74 72 67
89 89 91 95 98 99 100 97 92 90 91 91 90 91 90 90 91 91 94 97 96 95 96 96 96 98 98 96 92 90 88 85 80 75 73 74 72 72 74 74 72 70
92 93 97 100 100 100 100 98 96 96 96 95 94 94 93 92 90 90 92 94 93 92 91 90 89 91 97 99 97 94 91 87 83 77 74 74 74 74 75 75 74 74
97 98 99 100 100 100 100 99 99 99 100 99 98 98 97 92 87 85 88 91 92 91 89 89 90 90 94 99 100 98 94 90 86 80 75 75 76 76 76 76 76 77
93 99 100 99 100 100 99 98 99 99 99 97 99 101 99 95 87 83 87 91 91 89 87 90 95 95 95 98 99 100 98 93 90 83 78 76 78 79 78 77 78 81
89 94 98 99 101 99 97 97 99 100 96 93 98 101 99 96 88 83 89 91 89 89 88 90 94 94 95 98 100 100 99 97 93 88 82 79 79 80 79 79 81 84
91 89 94 100 101 99 97 96 98 100 99 96 99 100 101 98 89 85 90 90 88 91 93 93 92 90 93 98 100 99 100 99 96 92 88 84 81 81 81 82 84 86
93 88 91 99 99 98 99 98 99 101 100 100 100 99 101 99 90 87 92 94 94 97 98 96 95 93 95 100 100 99 100 100 98 96 92 88 85 83 84 86 86 88
89 84 86 95 99 100 100 100 100 100 100 101 100 99 101 97 91 90 96 99 99 100 100 98 97 98 99 100 100 99 100 100 100 98 95 92 90 88 90 90 89 92
85 84 83 91 99 100 99 99 100 100 100 100 99 100 99 96 94 96 99 100 100 100 100 99 99 100 100 100 100 99 100 101 100 98 97 96 94 94 95 94 94 98
91 94 90 92 99 100 98 99 100 100 100 100 100 101 99 96 97 99 99 99 100 100 100 98 98 100 100 100 100 99 100 100 98 97 97 97 98 98 98 98 99 100
98 101 97 96 100 100 99 99 100 100 100 100 100 100 100 99 98 98 98 99 100 100 100 99 98 100 100 100 100 99 100 100 98 97 97 99 100 99 99 101 100 100
99 101 100 99 100 100 100 100 100 100 100 100 101 100 100 100 98 97 99 100 100 100 100 100 99 100 100 100 100 100 100 100 100 98 99 100 100 99 100 101 99 100
96 99 99 100 100 100 100 100 100 100 100 100 100 100 100 100 98 99 100 100 100 100 100 100 98 98 100 100 100 100 100 100 100 99 99 100 100 100 100 100 100 101
97 101 99 100 100 99 100 100 100 100 100 100 100 100 100 100 99 100 100 100 100 100 100 100 97 97 100 100 100 100 100 100 100 100 100 99 100 100 100 100 100 99
98 100 99 99 98 97 99 101 100 100 100 100 100 100 100 100 100 100 100 100 100 100 100 100 98 98 100 100 100 100 100 100 100 100 100 100 100 101 100 101 100 98
97 96 97 98 96 95 98 100 100 100 99 99 100 100 100 100 100 100 100 100 100 99 100 100 100 100 100 100 100 100 99 101 100 98 97 99 101 100 100 100 100 99
Wind_Speed
34 34 34 33 32 31 30 29 28 26 26 27 28 29 29 27 26 25 26 26 27 27 27 27 28 30 32 31 32 35 37 38 39 39 39 41 41 41 42 43 41 39
34 34 34 34 33 33 32 30 29 28 27 26 26 27 28 28 27 27 27 27 28 28 27 27 27 29 31 32 32 34 36 37 38 37 38 40 40 41 43 43 42 40
35 34 34 34 34 34 33 31 30 29 28 27 26 26 26 27 28 28 28 28 28 29 28 28 28 28 30 32 32 33 35 35 35 35 36 38 39 40 42 43 42 40
36 35 35 35 34 34 33 33 32 31 30 28 27 26 26 26 27 28 28 28 28 29 29 28 29 29 30 31 31 32 33 34 34 34 35 37 38 39 41 43 43 42
37 36 36 35 35 34 34 33 33 33 31 30 28 27 26 26 26 28 29 28 28 29 30 29 29 29 30 30 31 32 33 33 34 34 36 36 37 39 40 42 44 43
38 37 36 36 36 35 34 34 34 33 32 30 28 27 26 26 26 27 28 29 29 29 30 30 30 30 30 30 31 32 34 34 34 34 36 36 37 38 40 42 44 44
38 38 37 36 36 36 35 34 34 33 31 29 29 28 27 25 25 25 26 27 28 29 30 31 31 31 30 31 32 33 34 35 35 35 36 36 37 39 40 42 44 44
39 39 38 37 37 36 36 35 34 33 29 27 28 28 27 25 24 24 24 26 27 28 29 30 32 32 31 31 33 34 34 36 37 36 36 37 38 39 40 42 44 43
39 39 38 37 37 37 36 35 34 31 28 27 27 27 26 26 25 24 24 25 26 28 29 30 31 33 33 32 33 35 35 36 38 38 37 38 39 40 40 42 43 44
39 39 38 37 37 37 37 36 34 30 28 27 27 27 26 25 25 25 25 25 26 28 28 29 30 32 34 35 34 35 35 36 38 38 37 38 39 40 39 40 42 43
39 39 38 37 37 37 36 35 32 29 27 26 26 26 25 25 25 24 25 25 26 27 28 29 30 30 33 37 36 35 35 36 37 38 38 38 38 39 39 39 40 41
39 38 38 37 37 37 36 34 31 28 27 26 25 25 25 25 24 24 24 25 25 26 27 28 29 30 32 36 38 37 36 36 36 37 39 38 38 39 39 39 38 39
39 38 38 37 37 37 34 31 29 28 27 26 25 25 26 25 25 25 24 25 26 26 27 27 28 29 32 35 38 38 37 36 36 36 38 39 39 39 39 39 38 38
39 38 38 38 38 36 32 29 29 29 29 28 27 26 26 26 25 25 24 24 26 27 28 28 29 30 32 34 38 39 38 37 36 36 38 40 40 39 39 38 38 38
39 38 38 37 36 33 30 29 30 30 30 30 28 26 27 26 25 24 23 24 25 27 29 29 30 31 33 34 37 39 38 37 36 36 37 39 40 39 38 38 38 38
40 39 38 36 34 32 31 30 30 30 31 31 29 27 28 29 27 24 24 24 25 27 29 30 31 32 33 33 35 38 37 35 35 35 36 38 38 38 38 38 38 38
42 41 39 35 33 33 32 31 31 30 30 31 30 29 30 31 27 24 23 24 25 29 31 32 31 31 31 31 33 35 35 32 32 34 36 37 37 37 37 37 36 36
43 42 40 36 34 33 32 31 31 30 30 31 30 30 32 31 26 23 23 24 27 31 33 31 30 30 29 29 30 32 32 29 29 32 34 35 36 36 36 35 35 34
43 41 39 37 34 32 31 31 31 31 30 30 30 31 32 29 25 23 24 25 29 31 30 29 29 29 27 26 27 29 29 28 27 29 31 32 34 34 34 33 33 32
38 37 37 36 34 31 30 31 31 32 31 30 31 33 30 26 25 25 25 26 27 27 27 28 28 26 24 23 24 26 27 27 25 25 27 29 31 31 31 30 30 30
34 34 35 36 33 31 31 30 31 31 30 30 32 32 28 25 26 27 25 25 25 26 28 28 26 22 20 20 22 24 25 27 26 23 24 26 28 28 28 27 27 27
32 33 34 35 32 31 30 30 31 31 30 30 31 30 26 25 26 26 26 25 26 27 28 27 24 19 17 17 20 21 23 26 28 26 24 24 24 25 25 25 25 25
34 33 33 33 32 30 28 29 31 31 30 29 29 28 26 24 25 26 27 27 28 28 27 25 22 16 14 15 17 19 21 25 28 28 26 24 22 21 20 20 20 21
32 29 29 30 29 26 26 28 30 31 29 28 27 26 26 25 25 27 28 27 28 27 24 23 20 14 13 14 16 17 20 25 27 27 27 26 24 22 20 18 16 17
29 26 25 26 24 23 24 28 29 29 28 26 24 25 27 26 26 26 27 26 26 24 22 21 18 13 11 12 15 17 20 24 27 27 27 28 26 24 22 20 16 15
26 24 22 21 20 22 24 26 28 28 26 24 24 25 26 26 25 25 25 25 23 22 20 20 16 13 11 11 14 16 19 24 27 27 28 29 27 25 23 22 20 16
Wind_Direction
321 320 318 317 316 316 316 315 313 311 309 306 301 297 294 294 293 292 290 288 285 281 274 265 258 256 254 253 254 255 255 255 254 254 253 251 248 244 243 242 242 242
320 319 317 316 315 314 314 313 311 308 306 305 303 298 293 290 289 288 288 286 284 282 278 269 259 254 252 251 250 252 253 253 253 253 253 251 248 244 242 241 241 240
320 318 317 315 313 313 313 312 309 307 304 302 302 300 295 290 286 285 285 284 283 281 279 274 263 255 252 250 249 250 251 251 252 252 252 252 248 243 241 241 240 240
319 318 316 314 313 313 312 311 310 308 305 301 300 301 299 294 288 285 283 282 282 280 279 277 269 259 253 251 249 248 249 249 250 250 252 252 249 244 241 240 239 240
317 317 316 314 313 313 311 310 309 309 307 303 300 299 298 297 292 286 284 282 281 280 278 277 273 265 256 252 249 248 248 248 248 249 249 249 248 245 242 240 239 240
317 317 316 314 312 312 311 309 309 309 306 303 301 298 297 298 294 289 285 283 282 280 277 275 273 269 260 254 251 248 248 247 247 247 248 248 246 244 241 239 239 240
317 317 316 314 313 312 311 309 309 308 305 302 300 298 297 297 294 290 287 283 282 280 278 273 270 270 265 257 252 249 248 247 246 245 246 246 245 243 240 238 238 239
316 316 315 314 312 311 311 310 309 307 304 301 299 296 297 297 295 294 289 284 281 279 278 275 269 267 266 260 254 249 248 248 246 244 243 243 243 240 238 237 237 238
314 314 314 313 311 310 310 310 309 306 302 301 298 295 294 295 295 296 292 287 283 279 278 278 272 266 263 262 256 250 248 248 247 245 243 241 240 239 236 236 236 237
313 313 313 311 310 309 308 308 308 305 302 300 299 295 293 292 293 295 293 289 285 282 281 281 279 271 262 259 258 253 248 248 248 246 243 241 240 239 237 236 236 237
312 311 310 309 308 307 306 306 306 304 302 300 299 296 292 291 291 293 294 291 288 286 284 282 282 279 268 260 257 255 250 247 247 246 244 242 240 239 238 237 237 238
311 310 308 307 306 305 303 303 305 305 303 300 298 296 292 290 290 292 293 291 288 287 286 283 282 282 275 264 257 254 251 247 246 245 244 242 240 238 238 238 238 238
310 309 308 307 306 304 303 304 307 307 304 301 298 296 293 290 290 292 293 291 289 287 286 286 284 282 278 269 257 252 250 246 243 243 243 241 240 238 237 238 239 239
311 308 308 307 306 305 305 307 307 306 303 300 298 297 296 294 294 294 293 290 289 289 289 289 288 284 279 271 258 249 247 245 242 241 241 239 238 237 237 238 239 240
312 309 307 306 305 304 305 307 305 304 303 301 298 298 298 298 297 295 293 290 289 292 294 292 290 286 281 273 259 248 244 242 240 239 239 238 238 238 238 238 239 241
310 308 306 305 303 302 303 305 303 303 304 302 299 299 299 299 298 295 292 291 292 296 299 296 291 287 283 275 261 248 243 241 239 238 237 237 238 239 238 238 238 240
307 307 305 303 301 300 301 303 302 302 303 302 299 299 299 298 297 296 295 296 299 302 302 298 292 288 284 274 260 248 241 239 238 236 236 236 237 238 238 238 238 240
302 303 303 302 300 299 301 302 301 301 301 301 300 298 297 296 298 299 300 302 303 302 301 299 295 292 284 270 256 245 239 238 235 234 235 236 236 237 238 239 239 240
298 299 301 300 298 297 300 301 300 300 300 300 300 297 295 296 300 302 302 302 300 299 301 301 298 292 282 266 251 240 234 235 235 232 234 237 236 236 238 239 240 240
294 295 298 299 297 295 298 300 299 299 301 301 299 298 297 299 302 303 301 298 297 299 303 304 300 292 279 263 247 233 225 229 234 233 232 234 236 236 237 238 239 240
296 294 296 298 297 295 297 299 299 299 301 300 299 300 300 301 303 303 301 299 301 304 305 305 303 293 277 259 243 230 219 221 229 231 229 231 233 234 235 236 237 239
304 299 298 298 297 298 299 298 298 300 301 302 302 302 300 300 302 303 302 304 307 306 305 307 305 292 273 257 242 228 216 215 222 226 227 228 229 230 232 233 235 237
310 303 297 297 298 300 301 300 301 303 304 304 303 303 302 301 302 303 305 307 307 305 304 307 305 288 266 256 243 225 211 210 217 222 225 228 229 229 229 230 233 235
318 309 297 295 298 302 304 303 304 305 306 306 306 306 305 305 304 305 306 306 305 304 303 304 299 279 254 250 240 220 207 208 214 218 222 226 228 229 230 231 232 232
323 316 301 297 301 305 306 306 306 307 307 307 308 307 307 307 307 306 305 305 305 303 301 300 292 267 242 239 231 215 205 208 213 215 218 224 226 226 229 230 230 230
319 314 306 305 307 307 308 309 308 309 309 309 309 309 309 309 308 306 304 304 303 300 297 296 284 256 232 226 222 211 204 208 212 213 216 222 222 222 225 225 224 224